User: anonymous   Login
Location: El Limón
(10.3059°N, 67.6321°W)
Time: 04:35:42
(UTC+00:00)
Language:

Atlas Centaur 2 - Orbit

View from above orbital plane
View from above orbital plane
View from above satellite
View from above satellite

Ground track
Ground track

The orbit data is extracted from the following two-line orbital elements,

1   694U 63047A   24174.84227147  .00003366  00000-0  41556-3 0  9994
2   694  30.3572  77.5305 0565329 349.3837   9.5251 14.07616225 42973
Epoch (UTC): 22 June 2024 20:12:52
Eccentricity: 0.0565329
inclination: 30.3572°
perigee height: 458 km
apogee height: 1277 km
right ascension of ascending node: 77.5305°
argument of perigee: 349.3837°
revolutions per day: 14.07616225
mean anomaly at epoch: 9.5251°
orbit number at epoch: 4297

The dashed part of the orbit path shows where the satellite is in the earth's shadow,  

DLR